Location: Newark
(34.3481°N, 134.0494°E)
Time: 19:52:57
(UTC+00:00)

Courier 1B - Visible Passes

Search period start: 21 January 2020 00:00
Search period end: 31 January 2020 00:00
Orbit: 962 x 1209 km, 28.3° (Epoch: 21 January)

Date Brightness Start Highest point End Pass type
(mag) Time Alt. Az. Time Alt. Az. Time Alt. Az.
21 Jan 8.5 19:21:07 44° S 19:21:29 44° SSE 19:28:48 10° E visible
21 Jan 8.4 21:08:01 10° WSW 21:15:29 56° S 21:23:08 10° ESE visible
22 Jan 9.4 18:30:49 27° ESE 18:30:49 27° ESE 18:34:39 10° E visible
22 Jan 8.3 20:17:43 29° WSW 20:21:34 55° S 20:29:12 10° E visible
23 Jan 8.2 19:27:23 52° S 19:27:41 52° S 19:35:12 10° E visible
23 Jan 8.5 21:14:19 10° W 21:21:44 53° S 21:29:20 10° ESE visible
24 Jan 9.2 18:37:01 31° ESE 18:37:01 31° ESE 18:41:09 10° E visible
24 Jan 8.3 20:23:55 29° WSW 20:27:50 55° S 20:35:27 10° ESE visible
25 Jan 10.3 17:46:38 12° E 17:46:38 12° E 17:47:03 10° E visible
25 Jan 8.1 19:33:31 55° SSW 19:33:57 55° S 19:41:30 10° ESE visible
25 Jan 8.7 21:20:47 10° W 21:27:57 45° SSW 21:35:20 10° SE visible
26 Jan 9.1 18:43:08 34° ESE 18:43:08 34° ESE 18:47:30 10° E visible
26 Jan 8.4 20:30:01 26° WSW 20:34:05 49° S 20:41:33 10° ESE visible
27 Jan 10.2 17:52:43 13° E 17:52:43 13° E 17:53:29 10° E visible
27 Jan 8.1 19:39:37 51° SSW 19:40:13 53° S 19:47:40 10° ESE visible
27 Jan 9.0 21:27:25 10° W 21:34:06 34° SSW 21:40:59 10° SE visible
28 Jan 8.9 18:49:13 36° SE 18:49:13 36° SE 18:53:45 10° ESE visible
28 Jan 8.6 20:36:07 22° WSW 20:40:17 40° SSW 20:47:24 10° SE visible
29 Jan 10.1 17:58:50 14° ESE 17:58:50 14° ESE 17:59:47 10° ESE visible
29 Jan 8.3 19:45:44 43° SSW 19:46:29 45° SSW 19:53:41 10° ESE visible
29 Jan 9.3 21:34:27 10° WSW 21:40:12 24° SSW 21:46:06 10° SSE visible
30 Jan 8.9 18:55:21 35° SE 18:55:21 35° SE 18:59:52 10° ESE visible
30 Jan 9.0 20:42:16 18° WSW 20:46:26 29° SSW 20:52:50 10° SE visible
